EW4502 Weather Reports


time (UTC)temp
C
wind
direction
speed
KPH
gust
KPH
rain 1hr
cm
rain 24hr
cm
rain mn
cm
humidity
%
barometer
mb
20260507060035 7 355 0.0 0.0 0.00 1.68 0.00 95 1007.3
20260507054534 7 332 0.0 0.0 0.00 1.68 0.00 95 1007.3
20260507053034 7 327 0.0 0.0 0.00 1.68 0.00 95 1007.5
20260507051534 7 307 0.0 0.0 0.00 1.68 0.00 95 1007.9
20260507050033 7 355 0.0 0.0 0.00 1.68 0.00 95 1007.9
20260507044541 7 355 0.0 0.0 0.00 1.68 0.00 95 1007.6
20260507043029 7 355 0.0 0.0 0.00 1.68 0.00 94 1007.6
20260507041524 7 355 0.0 0.0 0.00 1.68 0.00 95 1007.5
20260507040022 8 333 0.0 0.0 0.00 1.68 0.00 94 1007.5
20260507034519 8 264 0.0 6.4 0.00 1.68 1.68 94 1007.8
20260507033017 8 333 1.6 8.0 0.03 1.68 1.68 94 1007.7
20260507031515 8 268 0.0 3.2 0.03 1.68 1.68 94 1007.5
20260507030014 8 328 0.0 0.0 0.18 1.68 1.68 94 1007.4
20260507024512 8 277 0.0 1.6 0.25 1.68 1.68 93 1007.4
20260507023008 9 355 0.0 3.2 0.23 1.65 1.65 93 1007.5
20260507021505 10 300 0.0 12.9 0.23 1.65 1.65 94 1007.2
20260507020002 11 360 0.0 12.9 0.10 1.50 1.50 94 1007.2
20260507014616 11 360 0.0 9.7 0.05 1.42 1.42 94 1006.7
20260507013057 11 360 0.0 8.0 0.18 1.42 1.42 94 1006.4
20260507011555 12 360 0.0 4.8 0.41 1.42 1.42 95 1006.1
20260507010108 12 360 0.0 0.0 0.46 1.40 1.40 95 1006.1
20260507004554 12 360 0.0 8.0 0.46 1.37 1.37 95 1005.7
20260507003052 13 360 0.0 9.7 0.36 1.24 1.24 95 1005.5
20260507001553 13 213 0.0 3.2 0.15 1.02 1.02 95 1005.0
20260507000051 13 139 0.0 11.3 0.08 0.94 0.94 95 1004.5
20260506234552 13 136 0.0 4.8 0.05 0.91 0.91 95 1004.2
20260506233053 13 179 0.0 4.8 0.05 0.89 0.89 95 1004.1
20260506231547 13 167 0.0 6.4 0.03 0.86 0.86 95 1003.8
20260506230046 13 130 0.0 9.7 0.05 0.86 0.86 95 1003.8
20260506224544 13 198 0.0 4.8 0.05 0.86 0.86 95 1004.0
20260506223043 13 188 0.0 4.8 0.03 0.84 0.84 95 1004.0
20260506221544 13 136 0.0 9.7 0.03 0.84 0.84 95 1004.0
20260506220043 14 196 0.0 6.4 0.00 0.81 0.81 94 1004.1
20260506214544 14 169 1.6 8.0 0.00 0.81 0.81 94 1004.0
20260506213040 14 162 0.0 9.7 0.00 0.81 0.81 94 1004.0
20260506211539 14 155 0.0 0.0 0.03 0.81 0.81 94 1003.9
20260506210038 14 165 0.0 11.3 0.03 0.81 0.81 94 1003.9
20260506204537 15 172 1.6 14.5 0.03 0.81 0.81 94 1004.0
20260506203037 15 179 0.0 8.0 0.08 0.81 0.81 94 1004.1
20260506201544 15 85 1.6 8.0 0.15 0.79 0.79 94 1004.2
20260506200032 15 61 0.0 0.0 0.25 0.79 0.79 95 1004.3
20260506194539 15 193 1.6 11.3 0.28 0.79 0.79 95 1004.6
20260506193033 15 134 0.0 0.0 0.25 0.71 0.71 95 1004.6
20260506191528 15 80 0.0 6.4 0.20 0.64 0.64 94 1004.7
20260506190027 15 175 0.0 6.4 0.15 0.53 0.53 94 1004.7
20260506184527 15 146 0.0 4.8 0.20 0.51 0.51 94 1004.8
20260506183024 15 187 0.0 6.4 0.25 0.48 0.48 94 1004.8
20260506181521 15 151 0.0 0.0 0.23 0.41 0.41 94 1005.0
20260506180020 15 120 0.0 0.0 0.25 0.36 0.36 94 1005.5
20260506174518 15 149 0.0 0.0 0.25 0.30 0.30 94 1005.8
20260506173018 15 124 0.0 0.0 0.20 0.23 0.23 93 1006.1
20260506171516 15 142 0.0 0.0 0.18 0.18 0.18 92 1006.3
20260506170016 15 107 0.0 0.0 0.10 0.10 0.10 92 1006.4
20260506164512 15 106 0.0 0.0 0.05 0.05 0.05 91 1006.1
20260506163022 15 11 0.0 0.0 0.03 0.03 0.03 90 1006.3
20260506161511 15 111 0.0 1.6 0.00 0.00 0.00 89 1006.4
20260506160013 16 164 0.0 0.0 0.00 0.00 0.00 88 1006.5
20260506154507 16 136 0.0 0.0 0.00 0.00 0.00 86 1006.8
20260506153005 16 202 0.0 1.6 0.00 0.00 0.00 83 1007.0
20260506151506 16 90 0.0 0.0 0.00 0.00 0.00 84 1007.1
20260506150006 16 192 0.0 0.0 0.00 0.00 0.00 84 1007.3
20260506144508 16 346 0.0 0.0 0.00 0.00 0.00 82 1007.5
20260506143013 16 96 0.0 0.0 0.00 0.00 0.00 82 1007.1
20260506141503 16 207 0.0 0.0 0.00 0.00 0.00 83 1007.2
20260506140003 16 167 0.0 0.0 0.00 0.00 0.00 85 1007.0
20260506134501 15 244 0.0 0.0 0.00 0.00 0.00 86 1006.9
20260506133104 15 140 0.0 0.0 0.00 0.00 0.00 87 1006.9
20260506131558 15 194 0.0 0.0 0.00 0.00 0.00 87 1007.2
20260506130156 14 156 0.0 0.0 0.00 0.00 0.00 88 1007.5
20260506124558 14 105 0.0 0.0 0.00 0.00 0.00 88 1007.8
20260506123053 14 167 0.0 0.0 0.00 0.00 0.00 88 1007.7
20260506121558 14 48 0.0 0.0 0.00 0.00 0.00 88 1007.6
20260506120107 13 115 0.0 1.6 0.00 0.00 0.00 88 1007.5
20260506114603 13 360 0.0 6.4 0.00 0.00 0.00 89 1007.4
20260506113048 13 360 0.0 9.7 0.00 0.00 0.00 89 1007.7
20260506111551 13 360 0.0 8.0 0.00 0.00 0.00 90 1007.7
20260506110045 12 360 0.0 1.6 0.00 0.00 0.00 90 1007.7
20260506104547 12 360 0.0 0.0 0.00 0.00 0.00 91 1007.7
20260506103042 12 360 0.0 0.0 0.00 0.00 0.00 90 1007.8
20260506101541 12 360 0.0 0.0 0.00 0.00 0.00 90 1007.6
20260506100040 12 360 0.0 0.0 0.00 0.00 0.00 89 1007.6
20260506094539 12 360 0.0 0.0 0.00 0.00 0.00 89 1007.4
20260506093055 12 360 0.0 0.0 0.00 0.00 0.00 87 1007.5
20260506091532 12 360 0.0 0.0 0.00 0.00 0.00 87 1007.6
20260506090028 12 360 0.0 0.0 0.00 0.00 0.00 86 1007.5
20260506084527 12 360 0.0 0.0 0.00 0.00 0.00 86 1007.6
20260506083023 12 360 0.0 0.0 0.00 0.00 0.00 84 1007.7
20260506081521 13 360 0.0 0.0 0.00 0.00 0.00 83 1007.8
20260506073015 14 360 0.0 1.6 0.00 0.00 0.00 80 1008.0
20260506071514 14 360 0.0 1.6 0.00 0.00 0.00 80 1008.1
20260506061510 14 360 0.0 0.0 0.00 0.00 0.00 77 1007.9